GOES 16 1 41866U 16071A 21065.54279705 -.00000264 00000-0 00000+0 0 9995 2 41866 0.0581 299.4221 0001550 79.6713 265.5721 1.00271997 15778 ATLAS 5 CENTAUR R/B 1 41867U 16071B 21065.28664460 -.00000060 00000-0 00000-0 0 9998 2 41867 11.2364 83.5026 4961487 149.1885 252.9354 1.89351394 29682